Location: Unspecified
(48.5670°N, 0.0000°E)
Time: 16:48:56
(UTC+00:00)

Altair - Pass Details

Date: 28 August 2019
Orbit: 1501 x 1682 km, 47.2° (Epoch: 22 October)

Event Time Altitude Azimuth Distance (km) Brightness Sun altitude
Exits shadow 00:54:34 37° 138° (SE) 2,331 8.1 -30.4°
Drops below altitude 10° 01:02:58 10° 78° (ENE) 3,793 9.9 -30.0°
Sets 01:06:17 0° 70° (ENE) 4,753 10.6 -29.8°
